Notices

What's New in latest Release from April 7th, 2021:

- Updated Glossary, including Speed of Maximum Gust, and Total Hourly Precipitation

- Updated national and regional climate services offices contacts and prices information

- Addition of station inventory lists for 1981-2010, 1971-2000, and 1961-1990 Normals.

If you haven't already, please take our survey and provide feedback about our website: https://eccc.sondage-survey.ca/f/LanguageSelection.aspx?s=442ca660-fcf1-47c0-95a9-59707d6fd709

Hourly Data Report for May 08, 2021

KENORA A
ONTARIO
Current Station Operator: NAVCAN

49°47'18.000" N
94°21'47.000" W
409.70 m
6034076
71850
YQK

Download Data

Hourly Data (May 2021)
Hourly Data Report for May 8, 2021
TIME
LST
Temp Definition
°C
Dew Point Definition
°C
Rel Hum Definition
%
Precip. Amount Definition
mm

Wind Dir Definition
10's deg

Wind Spd Definition
km/h
Visibility Definition
km
Stn Press Definition
kPa
Hmdx Definition


Wind Chill Definition


Weather Definition


00:00 4.0 -4.6 53   32 10 32.2 97.12     Clear
01:00 3.0 -4.1 60   35 10 32.2 97.11     LegendNANA
02:00 1.0 -4.3 68   2 10 32.2 97.12     LegendNANA
03:00 1.6 -3.1 71   5 15 32.2 97.12     Clear
04:00 0.6 -3.2 76   5 13 32.2 97.11     LegendNANA
05:00 0.1 -3.9 75   4 16 32.2 97.17     LegendNANA
06:00 0.4 -3.9 73   3 14 32.2 97.21     Clear
07:00 1.5 -4.1 66   4 20 32.2 97.22     LegendNANA
08:00 2.9 -3.9 61   3 10 32.2 97.23     LegendNANA
09:00 4.8 -4.5 51   2 11 32.2 97.20     Clear
10:00 6.6 -5.2 43   4 16 32.2 97.17     LegendNANA
11:00 6.9 -7.1 36   4 10 32.2 97.18     LegendNANA
12:00 9.0 -8.1 29   7 19 32.2 97.13     Clear
13:00 9.5 -9.5 25   3 14 32.2 97.07     LegendNANA
14:00 9.7 -7.8 28   25 9 32.2 97.05     LegendNANA
15:00 11.0 -8.5 25   6 13 32.2 96.99     Mainly Clear
16:00 11.3 -8.7 24   35 12 32.2 96.94     LegendNANA
17:00 11.2 -7.7 26   36 13 32.2 96.94     LegendNANA
18:00 10.6 -7.8 27   1 19 32.2 96.95     Mainly Clear
19:00 9.7 -7.8 28   35 13 32.2 96.99     LegendNANA
20:00 7.7 -7.7 33   36 9 32.2 97.05     LegendNANA
21:00 5.9 -7.5 38   1 9 32.2 97.13     Mainly Clear
22:00 5.2 -6.2 44   5 17 32.2 97.18     LegendNANA
23:00 4.3 -6.6 45   4 16 32.2 97.19     LegendNANA

Notes on Data Quality.

Legend

  • E = Estimated
  • M = Missing
  • NA = Not Available*
  • [empty] = Indicates an unobserved value
Date modified: